User: anonymous   Login
Location: Baggettsville
(36.4767°N, 86.7303°W)
Time: 09:47:02
(UTC+00:00)
Language:

ISS - Orbit

View from above orbital plane
View from above orbital plane
View from above satellite
View from above satellite

Ground track
Ground track

The orbit data is extracted from the following two-line orbital elements,

1 25544U 98067A   21288.89585951  .00029923  00000-0  55438-3 0  9994
2 25544  51.6431 105.8683 0004092 110.7554 353.7099 15.48727409307307
Epoch (UTC): 15 October 2021 21:30:02
Eccentricity: 0.0004092
inclination: 51.6431°
perigee height: 417 km
apogee height: 423 km
right ascension of ascending node: 105.8683°
argument of perigee: 110.7554°
revolutions per day: 15.48727409
mean anomaly at epoch: 353.7099°
orbit number at epoch: 30730

The dashed part of the orbit path shows where the satellite is in the earth's shadow,  

DLR